Flag for Liechtenstein Weather past 2 weeks in Vaduz, Liechtenstein

Now
65 °F

Mild.


Feels Like: 65 °F
Forecast: 51 / 62 °F
Wind: 3 mph from North

Location: Vaduz

Current Time: Sep 4, 2015 at 1:06:39 PM

Latest Report: Sep 4, 2015 at 12:00 PM


Visibility: N/A

Pressure: 30.01 "Hg

Humidity: 68%

Dew point: 54 °F

Location of VaduzLocation

Historic Weather in Vaduz — Graph

°F

Vaduz temperature yesterday

Maximum temperature yesterday: 63 °F (at 12:00 PM)
Minimum temperature yesterday: 57 °F (at 9:00 PM)
Average temperature yesterday: 59 °F

Past Weeks' High & Low Weather Summary

 TemperatureHumidityPressure
High88 °F (Aug 30, 4:00 PM)96% (Aug 25, 4:00 AM)30.28 "Hg (Aug 25, 4:00 AM)
Low54 °F (Aug 22, 12:00 AM)26% (Aug 31, 1:00 PM)29.67 "Hg (Aug 24, 11:00 AM)
Average69 °F65%30.00 "Hg
* Reported Aug 20 11:00 AM — Sep 4 11:00 AM, Vaduz, Weather by CustomWeather, © 2015

Note: Actual official high and low records may vary slightly from our data, if they occured in-between our weather recording intervals... More about our weather records

Advertising

Vaduz weather history for previous 24 hours

 ConditionsComfort  
Time TempWeatherWind HumidityBarometerVisibility
11:00 AM
Fri, Sep 4
62 °FFog.3 mph67%30.03 "Hg6 mi
10:00 AM58 °FCool.2 mph81%30.04 "HgN/A
9:00 AM57 °FCool.1 mph90%30.05 "HgN/A
8:00 AM56 °FFog.3 mph91%30.05 "Hg5 mi
7:00 AM55 °FCool.1 mph95%30.04 "HgN/A
6:00 AM55 °FCool.2 mph91%30.03 "HgN/A
5:00 AM55 °FFog.3 mph92%30.03 "Hg3 mi
4:00 AM55 °FCool.1 mph96%30.03 "HgN/A
3:00 AM55 °FCool.1 mph96%30.03 "HgN/A
2:00 AM56 °FRain. Overcast.3 mph91%30.04 "Hg3 mi
1:00 AM56 °FCool.3 mph91%30.05 "HgN/A
12:00 AM56 °FCool.2 mph95%30.04 "HgN/A
10:00 PM
Thu, Sep 3
57 °FCool.No wind95%30.02 "HgN/A
9:00 PM57 °FCool.2 mph94%30.02 "HgN/A
8:00 PM57 °FRain. Overcast.5 mph92%30.00 "Hg3 mi
7:00 PM58 °FCool.3 mph92%30.00 "HgN/A
6:00 PM57 °FCool.1 mph91%29.98 "HgN/A
5:00 PM58 °FHeavy rain. Overcast.6 mph93%29.97 "Hg1 mi
4:00 PM59 °FCool.3 mph94%29.98 "HgN/A
3:00 PM60 °FCool.2 mph90%29.96 "HgN/A
2:00 PM61 °FRain. Overcast.8 mph82%29.94 "Hg4 mi
1:00 PM63 °FMild.5 mph85%29.94 "HgN/A
Weather by CustomWeather, © 2015

See weather overviewHow to use our weather pages